Dewpoint
13 11 14 13 14 14 13 11 13 13 13 13 12 12 12 11 11 11 11 10 9 7 8 5 1 2 9 11 11 11 10 9 6 2 -2 -4 -2 -4 -0 1 -1 9 7
14 8 13 14 14 13 13 11 13 13 12 12 12 12 11 11 10 10 9 8 4 3 10 12 9 -1 12 12 11 10 9 9 6 3 -2 1 1 -3 -2 -1 -1 7 4
15 14 14 13 13 13 10 10 11 11 10 9 9 10 11 12 11 10 5 1 -3 -0 8 13 12 10 13 13 12 10 10 7 2 -2 1 9 8 3 -1 -1 0 2 2
14 15 15 14 13 12 10 7 5 3 2 2 2 6 10 11 10 1 -1 -1 -2 -3 7 12 13 13 13 12 11 10 10 5 -2 -4 8 7 6 5 -4 -4 -1 6 9
14 15 14 13 13 12 9 5 4 2 -0 -0 0 1 3 3 -1 1 1 -1 -4 -4 -1 11 11 11 12 11 9 10 5 -2 -1 8 10 10 4 8 -3 -7 -3 8 9
14 14 14 13 13 13 10 8 7 4 -1 -0 6 5 4 9 6 5 3 -1 -3 -4 -4 8 10 11 9 10 7 -1 -3 -1 8 11 11 11 10 6 5 -1 -3 -2 1
13 15 13 13 13 12 10 9 8 6 0 0 8 10 9 9 7 9 7 2 -2 -2 -4 -5 -4 -2 -4 -4 -4 -2 -0 3 6 11 11 11 11 7 7 6 7 7 7
13 14 13 13 13 12 11 10 9 7 3 -3 7 10 11 11 11 9 9 4 -1 -0 0 1 1 1 2 3 3 4 4 6 10 11 11 11 9 8 8 7 9 10 10
13 14 15 13 13 13 12 11 10 9 6 -2 5 9 10 11 11 10 10 6 1 1 1 2 2 3 4 6 6 7 7 7 7 11 11 11 10 9 9 10 10 10 9
13 13 14 15 14 13 12 12 11 10 8 2 2 7 9 11 10 11 10 5 2 2 2 4 4 5 6 7 7 7 8 9 10 11 11 11 9 9 9 9 8 7 8
13 13 13 14 15 15 14 13 13 11 10 6 -0 3 7 11 12 10 9 5 3 4 5 6 7 7 7 9 9 9 9 10 10 10 10 10 8 9 9 9 9 8 7
13 13 13 13 14 14 14 14 13 13 10 9 4 -0 7 10 11 12 8 4 5 6 7 7 8 9 10 11 10 9 9 8 8 8 7 6 6 5 4 2 0 -1 -1
12 13 13 13 14 14 15 14 14 15 13 13 11 10 10 10 8 5 7 6 7 7 10 10 10 11 9 9 8 8 7 6 6 6 5 3 -1 -3 -2 -1 -2 -1 -1
10 12 13 13 14 14 14 14 14 14 14 13 12 11 10 9 8 10 10 11 10 10 11 11 10 9 9 9 8 8 7 7 6 3 -1 -3 -4 -5 -5 -4 -4 -4 -4
8 10 12 13 13 14 14 14 14 14 14 13 13 11 10 10 10 10 10 10 10 10 10 9 9 9 8 7 7 5 1 -3 -4 -4 -4 -6 -6 -7 -7 -7 -7 -8 -8
7 8 10 12 13 14 14 10 13 14 13 13 13 12 11 11 11 11 11 10 9 9 9 9 8 8 7 6 1 -4 -5 -6 -7 -8 -8 -7 -9 -10 -10 -10 -10 -9 -7
3 7 7 10 11 13 14 10 10 14 13 13 13 12 12 11 10 9 9 8 8 9 9 9 8 7 4 -4 -4 -8 -12 -13 -13 -11 -11 -5 -8 -10 -10 -9 -7 -7 -9
4 3 3 4 9 11 13 13 8 14 13 13 13 12 11 10 9 9 9 9 9 9 8 8 6 -2 -3 -5 -10 -13 -14 -14 -13 -11 -10 -8 -9 -7 -10 -11 -12 -14 -14
4 4 4 4 3 7 11 13 13 13 13 13 13 13 11 10 9 9 9 10 9 9 9 5 -3 -2 -4 -7 -12 -14 -14 -15 -13 -12 -7 -11 -12 -11 -11 -15 -20 -19 -20
2 3 3 4 4 3 8 12 13 13 13 12 13 13 12 10 10 10 10 10 9 9 7 -3 -2 -2 -4 -7 -12 -14 -15 -18 -15 -13 -10 -11 -11 -14 -16 -19 -21 -23 -25
1 3 4 3 4 6 8 11 12 12 12 13 13 13 11 11 11 11 11 10 9 8 -3 -3 -2 -3 -4 -8 -12 -14 -11 -14 -16 -12 -12 -10 -9 -13 -16 -17 -21 -23 -23
2 4 4 3 5 5 8 9 12 12 12 13 13 12 11 11 11 11 11 10 9 -1 -3 -1 -1 -3 -4 -8 -15 -12 -9 -10 -9 -12 -8 -13 -16 -14 -13 -17 -21 -22 -23
2 2 4 4 5 6 8 11 12 12 12 13 12 12 12 11 11 11 10 9 4 -3 -2 -1 -1 -3 -6 -10 -16 -18 -10 -10 -11 -13 -14 -12 -16 -12 -15 -17 -18 -19 -20
-0 2 4 4 6 8 10 10 10 8 10 10 12 12 12 12 11 11 10 6 -2 -2 -1 -1 -1 -3 -7 -14 -16 -18 -19 -19 -12 -13 -13 -12 -12 -14 -13 -13 -15 -18 -19
-5 0 4 5 7 9 9 10 8 9 9 10 12 12 12 11 11 10 7 1 -2 -2 -1 -1 -1 -4 -9 -16 -19 -19 -19 -16 -13 -11 -10 -13 -14 -13 -13 -12 -12 -12 -14
-3 -2 4 6 8 10 10 7 7 9 8 9 12 11 11 11 10 6 1 -1 -2 -1 -1 -1 -3 -7 -13 -17 -19 -19 -20 -17 -14 -12 -12 -13 -13 -14 -13 -14 -13 -14 -12
Wind_Speed
13 14 15 13 11 11 10 7 13 11 9 9 9 9 8 8 8 8 10 9 9 7 6 5 5 5 7 5 3 2 3 5 7 8 8 7 5 6 6 5 4 5 8
18 14 16 14 13 12 8 8 10 9 8 8 8 7 6 7 6 6 7 7 5 4 2 5 3 10 9 7 6 3 4 6 8 9 8 8 8 5 3 3 3 4 6
18 17 17 16 13 10 7 8 9 8 8 9 9 9 8 7 4 5 5 3 3 4 7 7 7 11 10 11 3 4 8 9 9 8 8 9 8 9 6 4 3 1 2
17 16 16 17 13 10 7 8 7 6 6 6 7 9 12 8 5 4 2 4 3 3 9 9 11 11 8 3 5 9 10 10 7 6 8 3 3 11 8 6 3 2 4
16 16 17 16 11 10 8 8 6 5 4 5 6 8 12 7 6 7 5 4 4 4 8 13 9 6 5 6 8 9 9 6 5 8 5 7 6 9 9 7 4 5 5
16 15 16 16 15 11 8 7 5 4 5 6 12 14 15 10 8 7 7 6 6 5 6 11 11 11 9 10 9 5 3 2 7 6 6 8 8 8 9 8 6 5 6
16 16 15 16 14 11 10 7 5 3 4 8 13 13 11 8 7 6 5 5 5 6 7 6 5 4 4 4 3 2 2 2 6 4 4 5 7 8 9 8 8 8 9
15 15 15 17 14 11 11 8 5 4 4 6 10 13 11 8 5 3 2 3 3 5 5 5 4 3 2 1 1 2 2 3 6 4 5 6 9 9 10 9 9 11 12
14 15 13 17 15 12 10 8 6 4 3 5 9 12 12 9 7 3 3 1 2 2 3 3 3 3 2 2 2 3 3 4 6 4 6 5 11 10 10 10 8 10 11
14 15 14 15 15 15 13 10 7 6 4 5 8 10 10 9 6 7 5 3 1 1 1 2 2 2 2 2 3 4 5 7 8 6 5 9 10 10 10 12 14 13 14
13 15 15 15 16 14 11 11 10 8 7 6 8 9 10 6 4 4 6 3 2 1 1 1 1 2 3 5 6 5 6 5 6 7 9 11 11 11 13 14 15 16 16
14 16 16 16 16 15 15 15 11 10 10 7 7 9 9 8 9 10 7 5 3 2 1 1 2 4 6 4 8 8 5 5 6 6 11 12 13 12 13 14 14 14 14
14 16 17 17 16 17 18 14 14 14 11 11 10 9 9 10 12 9 3 4 2 2 3 5 6 2 4 3 6 6 7 6 6 7 16 14 13 13 13 14 16 16 15
16 16 17 17 17 18 14 16 15 15 15 14 11 13 11 10 9 7 6 6 5 1 4 3 7 6 6 8 9 8 11 13 13 12 16 16 15 14 13 15 17 17 17
17 17 17 18 18 17 20 17 15 18 16 14 13 13 11 10 9 8 8 5 5 7 7 7 7 8 8 8 11 13 14 14 15 14 16 19 16 14 16 17 17 17 17
18 18 17 18 19 17 18 20 19 15 18 19 15 15 14 11 10 10 9 9 5 7 9 9 8 10 10 10 12 14 15 15 16 16 11 19 16 15 15 16 16 15 14
19 19 19 19 19 19 19 20 21 18 17 22 19 16 17 16 13 13 11 8 6 6 9 11 10 10 10 12 14 15 14 14 14 14 11 9 15 11 13 13 13 14 15
21 20 20 20 21 21 19 19 23 18 20 22 20 19 19 16 17 14 12 11 8 6 7 8 8 9 11 12 13 12 13 13 11 10 9 9 10 11 13 12 15 17 18
26 23 22 21 22 21 20 20 17 18 22 23 22 20 21 20 19 17 15 13 11 8 7 7 7 9 11 12 12 12 13 13 11 8 8 10 10 11 14 17 18 19 21
30 28 25 23 22 21 21 22 19 20 25 25 27 22 23 22 23 19 17 14 12 9 8 7 8 9 10 12 11 10 13 10 9 8 8 8 12 13 15 19 19 18 23
34 32 30 27 24 22 22 24 23 26 27 27 26 28 26 25 24 21 19 15 13 10 8 7 7 9 11 11 10 8 10 10 10 10 8 8 12 16 18 16 18 22 24
33 34 32 30 27 27 24 24 23 26 32 35 37 32 29 30 26 23 20 16 13 11 8 6 6 9 11 11 9 8 3 7 8 6 9 16 11 16 12 18 22 23 22
35 34 33 31 29 29 26 23 24 32 38 42 38 36 33 30 25 23 19 16 14 11 8 6 6 8 10 11 9 4 3 3 13 10 13 11 14 14 20 24 24 23 24
37 34 33 32 30 28 28 28 35 38 41 39 37 34 33 29 25 24 20 17 14 11 8 6 7 8 8 9 11 8 6 9 4 9 7 9 15 19 21 25 26 25 26
32 36 34 31 30 29 30 32 35 33 26 33 37 34 30 30 27 23 20 17 14 11 8 6 7 8 9 9 9 9 10 9 9 10 16 11 20 19 23 20 21 27 24
30 27 34 32 32 30 33 32 31 25 32 33 38 36 33 31 29 24 20 17 14 10 7 7 7 8 9 10 10 11 10 9 9 11 15 22 25 26 21 27 23 25 23
Wind_Direction
150 172 165 159 158 166 191 191 188 194 199 199 206 217 229 241 251 263 269 272 282 282 286 281 243 192 178 210 187 294 290 329 331 338 341 350 326 305 294 297 298 22 288
153 166 167 161 166 177 211 191 183 191 200 208 209 206 216 235 248 272 270 274 275 211 133 102 149 166 176 189 175 280 323 333 331 338 348 11 4 353 329 339 334 243 281
151 160 161 165 175 186 181 180 180 190 199 205 208 209 205 216 220 272 277 298 154 184 161 135 137 154 163 164 181 267 304 323 330 342 22 38 333 327 316 320 347 289 302
151 158 163 167 174 177 169 165 165 178 188 197 197 188 192 206 244 257 113 97 102 142 168 164 151 135 145 177 244 272 293 316 336 17 29 336 23 316 312 305 309 336 320
154 157 181 170 179 170 160 156 149 152 156 167 168 169 193 182 130 110 97 81 83 117 167 182 186 224 235 231 259 286 301 327 27 39 6 343 7 323 332 329 302 306 289
155 162 191 177 171 171 167 155 137 126 130 132 136 121 128 116 104 91 77 67 68 81 127 181 201 216 237 248 271 289 311 24 58 8 9 342 7 359 358 9 352 327 307
160 177 193 182 177 176 173 161 142 119 124 138 139 143 143 128 116 78 64 67 84 91 105 126 156 189 210 226 234 271 10 62 51 36 358 337 308 343 346 354 348 344 335
168 173 176 178 181 181 176 172 160 139 127 144 151 154 148 161 167 130 46 52 101 115 117 123 133 138 127 101 64 33 35 30 41 348 333 343 317 334 332 334 332 318 313
173 171 180 182 186 187 183 178 173 166 142 143 157 165 166 161 170 192 233 248 147 135 123 122 124 120 103 58 31 28 19 11 24 327 343 308 300 317 318 322 314 316 320
176 177 182 188 189 191 194 194 188 187 177 163 173 177 166 170 184 195 206 231 190 167 139 126 112 97 62 22 356 353 356 15 25 320 327 294 314 317 309 304 306 310 310
183 186 186 190 188 187 201 203 205 203 202 195 187 185 178 147 163 184 196 231 222 205 169 116 62 21 10 358 346 340 13 356 323 307 293 288 309 304 301 301 301 303 304
192 192 192 191 195 198 200 219 219 220 218 203 200 191 165 184 187 186 227 225 242 228 244 337 338 354 41 341 336 359 359 325 314 314 288 303 306 302 300 299 299 296 298
205 199 196 196 196 199 192 214 207 212 206 188 195 204 179 191 218 205 224 235 239 253 15 339 348 58 247 263 293 318 323 318 312 300 288 302 300 298 293 291 287 288 290
207 203 199 198 199 197 205 206 201 207 213 200 202 193 191 186 183 180 181 195 176 244 227 199 228 284 310 301 301 293 297 298 294 294 293 299 297 291 286 278 283 284 288
211 206 205 197 202 204 200 201 206 212 206 215 200 195 190 186 179 179 182 171 180 202 216 268 286 290 289 295 304 303 302 299 298 296 288 294 291 283 277 279 284 288 291
217 212 208 208 204 205 213 217 197 210 211 213 196 197 191 187 182 180 190 205 241 275 264 264 269 285 290 298 302 302 303 303 299 292 276 287 287 282 281 284 288 292 293
224 220 214 212 210 209 211 219 221 200 212 212 197 198 188 194 202 200 202 198 243 265 255 261 268 280 294 306 304 299 301 297 296 293 277 257 292 285 283 287 290 294 294
225 222 221 217 210 212 212 225 221 202 217 217 202 194 194 200 203 201 206 211 221 247 255 260 270 286 300 309 313 312 308 306 296 281 278 265 259 284 294 292 294 296 295
231 228 224 219 216 210 213 214 218 205 211 219 202 196 197 208 205 208 211 213 220 237 252 255 270 291 311 323 325 318 309 308 295 272 257 276 280 279 288 298 302 300 300
233 230 227 221 224 224 210 208 209 209 215 218 203 197 200 208 212 213 213 217 230 238 235 248 280 305 320 328 327 316 308 303 286 276 280 286 288 292 290 302 304 310 309
230 228 225 221 221 214 207 203 202 206 211 207 211 196 209 206 213 211 213 214 229 225 224 252 290 312 322 329 336 322 315 319 305 286 275 274 289 296 295 298 297 306 307
229 227 224 221 217 218 214 210 200 203 207 207 202 204 201 210 210 209 213 219 225 212 223 255 293 311 320 334 345 352 330 284 315 297 262 281 282 290 290 293 300 303 301
230 227 224 218 213 215 207 196 185 201 209 211 212 216 206 213 214 205 209 217 216 210 227 258 293 310 323 330 344 353 329 294 291 286 272 280 295 289 298 300 304 304 305
231 226 220 216 211 207 201 196 201 214 214 216 212 204 207 206 200 200 210 212 206 213 233 261 290 309 323 322 333 327 301 278 295 298 256 296 287 291 300 300 301 304 307
236 226 219 213 205 201 204 198 212 209 212 212 206 197 195 198 195 200 205 206 205 215 237 266 290 311 319 318 317 314 315 303 285 269 296 293 288 293 295 299 298 300 306
240 232 215 209 201 196 197 209 210 194 210 207 201 195 196 193 193 192 200 202 204 218 240 272 297 314 318 316 312 312 308 294 270 278 287 294 298 307 295 300 297 313 300
Height
1492 1490 1493 1496 1499 1501 1502 1503 1504 1506 1507 1509 1510 1511 1512 1512 1513 1514 1515 1515 1516 1516 1517 1517 1517 1519 1521 1521 1522 1523 1523 1524 1524 1524 1523 1522 1521 1521 1522 1522 1523 1526 1524
1490 1490 1493 1496 1499 1501 1502 1503 1504 1506 1507 1509 1510 1510 1511 1511 1513 1514 1514 1514 1515 1516 1517 1517 1517 1519 1521 1522 1522 1524 1523 1523 1524 1524 1523 1522 1521 1522 1522 1522 1523 1523 1523
1492 1490 1493 1496 1499 1501 1502 1503 1505 1506 1507 1508 1509 1511 1512 1511 1513 1514 1514 1514 1514 1515 1516 1518 1518 1519 1521 1521 1522 1524 1523 1523 1523 1523 1523 1524 1525 1523 1523 1522 1522 1522 1524
1493 1493 1495 1496 1499 1500 1503 1504 1505 1506 1506 1507 1509 1510 1511 1513 1514 1514 1514 1514 1514 1515 1517 1519 1519 1520 1520 1521 1523 1524 1523 1523 1522 1522 1524 1525 1524 1522 1523 1521 1522 1522 1524
1493 1495 1494 1497 1500 1502 1503 1505 1505 1506 1507 1507 1507 1509 1511 1514 1514 1514 1515 1515 1515 1516 1517 1519 1521 1521 1522 1523 1523 1523 1523 1523 1523 1522 1523 1524 1524 1522 1523 1521 1522 1522 1523
1494 1497 1495 1497 1499 1502 1504 1506 1507 1506 1507 1508 1509 1509 1512 1514 1515 1516 1516 1516 1516 1517 1517 1519 1521 1522 1523 1523 1522 1522 1522 1523 1524 1527 1526 1525 1524 1523 1523 1521 1522 1522 1522
1495 1496 1495 1498 1500 1501 1504 1506 1507 1509 1508 1508 1510 1512 1513 1514 1515 1517 1517 1517 1517 1518 1518 1520 1521 1522 1522 1522 1522 1522 1522 1523 1524 1527 1527 1526 1524 1523 1523 1522 1522 1522 1521
1495 1496 1494 1497 1500 1502 1504 1506 1508 1509 1510 1510 1511 1512 1514 1515 1516 1517 1518 1519 1519 1519 1519 1520 1521 1521 1522 1522 1522 1522 1523 1523 1524 1527 1526 1526 1525 1523 1522 1521 1521 1521 1520
1495 1496 1496 1496 1499 1502 1505 1506 1507 1509 1510 1511 1511 1513 1513 1515 1517 1518 1518 1519 1520 1520 1520 1520 1521 1521 1521 1522 1523 1523 1523 1524 1524 1526 1526 1526 1524 1523 1521 1521 1520 1519 1518
1493 1496 1498 1498 1498 1500 1503 1505 1507 1508 1509 1510 1512 1512 1515 1516 1517 1518 1519 1519 1520 1520 1521 1521 1521 1521 1522 1522 1523 1523 1524 1524 1524 1526 1524 1523 1523 1522 1521 1520 1519 1519 1517
1493 1495 1498 1499 1498 1501 1503 1504 1506 1507 1509 1509 1511 1512 1514 1517 1517 1518 1518 1519 1519 1520 1521 1522 1522 1522 1522 1523 1523 1522 1524 1525 1525 1525 1523 1521 1521 1520 1520 1518 1517 1517 1516
1491 1493 1496 1498 1499 1500 1501 1503 1505 1506 1507 1509 1510 1511 1513 1517 1518 1518 1518 1519 1520 1520 1521 1522 1522 1523 1523 1525 1523 1522 1524 1525 1524 1523 1520 1519 1519 1518 1517 1516 1515 1514 1514
1489 1491 1493 1496 1498 1500 1500 1501 1503 1505 1507 1509 1510 1511 1514 1515 1515 1517 1518 1519 1519 1521 1521 1522 1522 1523 1523 1523 1523 1523 1522 1523 1522 1522 1517 1517 1516 1516 1515 1513 1512 1512 1511
1486 1488 1490 1493 1495 1498 1499 1500 1501 1504 1505 1507 1510 1511 1512 1513 1514 1516 1519 1520 1520 1522 1523 1522 1522 1522 1522 1521 1522 1521 1520 1519 1518 1518 1514 1515 1513 1512 1511 1510 1509 1508 1508
1484 1486 1487 1489 1491 1492 1496 1499 1502 1501 1503 1505 1508 1509 1511 1513 1514 1516 1517 1519 1520 1521 1520 1521 1520 1521 1521 1520 1519 1519 1518 1516 1515 1514 1511 1511 1510 1508 1507 1505 1506 1506 1505
1481 1482 1485 1486 1488 1490 1490 1492 1497 1500 1500 1503 1505 1507 1510 1513 1514 1515 1516 1516 1517 1518 1519 1519 1519 1519 1519 1518 1517 1516 1515 1513 1511 1510 1509 1506 1507 1504 1504 1502 1503 1502 1502
1477 1479 1481 1483 1485 1486 1487 1487 1490 1496 1498 1499 1502 1504 1507 1509 1510 1511 1512 1513 1516 1516 1516 1517 1517 1518 1517 1516 1515 1514 1511 1509 1509 1507 1506 1505 1502 1502 1501 1500 1500 1499 1499
1472 1474 1477 1478 1480 1482 1485 1484 1486 1491 1495 1496 1499 1502 1503 1504 1506 1508 1509 1511 1512 1513 1514 1514 1515 1516 1515 1513 1512 1509 1507 1506 1505 1504 1503 1502 1500 1499 1499 1499 1498 1496 1496
1466 1469 1471 1472 1473 1477 1480 1482 1483 1488 1491 1492 1497 1498 1500 1501 1502 1504 1507 1509 1510 1510 1511 1512 1513 1513 1512 1511 1509 1506 1505 1503 1502 1502 1501 1499 1498 1498 1497 1495 1495 1493 1491
1459 1463 1466 1467 1468 1470 1474 1477 1481 1485 1487 1489 1491 1494 1497 1497 1500 1502 1505 1506 1507 1508 1509 1510 1511 1510 1509 1508 1507 1505 1503 1501 1500 1499 1499 1498 1496 1495 1494 1493 1490 1489 1487
1450 1453 1457 1461 1462 1464 1467 1470 1474 1478 1482 1484 1488 1489 1491 1494 1496 1499 1502 1504 1505 1506 1507 1508 1509 1508 1507 1506 1505 1504 1501 1500 1499 1497 1497 1497 1495 1492 1491 1489 1487 1485 1483
1441 1444 1448 1452 1455 1456 1460 1463 1468 1471 1473 1477 1479 1482 1485 1489 1492 1496 1499 1501 1502 1504 1505 1505 1506 1506 1505 1504 1503 1502 1502 1501 1498 1497 1497 1494 1492 1489 1488 1485 1483 1481 1478
1433 1436 1440 1444 1446 1448 1453 1458 1463 1461 1465 1469 1474 1476 1479 1484 1489 1493 1497 1498 1500 1502 1502 1503 1504 1504 1503 1502 1502 1503 1501 1500 1496 1495 1494 1492 1489 1487 1484 1482 1479 1477 1473
1425 1428 1431 1436 1439 1442 1446 1449 1451 1451 1455 1460 1467 1472 1476 1479 1484 1489 1494 1496 1497 1499 1500 1501 1501 1501 1501 1501 1499 1499 1499 1498 1498 1494 1492 1489 1487 1484 1482 1478 1475 1472 1468
1418 1421 1424 1428 1431 1434 1439 1443 1444 1449 1453 1456 1461 1467 1472 1477 1481 1487 1490 1492 1494 1496 1497 1498 1499 1498 1498 1498 1498 1496 1495 1495 1495 1494 1487 1485 1483 1481 1477 1474 1469 1465 1462
1410 1414 1417 1421 1423 1427 1430 1435 1440 1445 1445 1449 1456 1461 1467 1473 1478 1483 1487 1489 1492 1493 1495 1495 1496 1495 1495 1495 1495 1492 1491 1492 1492 1490 1485 1480 1477 1474 1472 1468 1464 1460 1457